Flag for U.S.A. Weather past 2 weeks in Temple, Texas, U.S.A.

Now
93 °F

Sunny.


Feels Like: 93 °F
Forecast: 69 / 95 °F
Wind: 7 mph from Southeast

Location: Fort Hood AAF Airport

Current Time: Aug 28, 2015 at 2:38:15 PM

Latest Report: Aug 28, 2015 at 1:58 PM


Visibility: 10 mi

Pressure: 29.94 "Hg

Humidity: 34%

Dew point: 60 °F

Location of TempleLocation

Historic Weather in Temple — Graph

°F

Temple temperature yesterday

Maximum temperature yesterday: 95 °F (at 4:58 PM)
Minimum temperature yesterday: 73 °F (at 7:58 AM)
Average temperature yesterday: 83 °F

Past Weeks' High & Low Weather Summary

 TemperatureHumidityPressure
High99 °F (Aug 23, 3:58 PM)96% (Aug 20, 11:58 PM)30.12 "Hg (Aug 20, 11:58 PM)
Low69 °F (Aug 20, 8:58 AM)26% (Aug 15, 5:58 PM)29.68 "Hg (Aug 18, 6:58 PM)
Average84 °F60%29.94 "Hg
* Reported Aug 13 12:58 PM — Aug 28 12:58 PM, Temple, Weather by CustomWeather, © 2015

Note: Actual official high and low records may vary slightly from our data, if they occured in-between our weather recording intervals... More about our weather records

Advertising

Temple weather history for previous 24 hours

 ConditionsComfort  
Time TempWeatherWind HumidityBarometerVisibility
12:58 PM
Fri, Aug 28
92 °FSunny.7 mph35%29.96 "Hg10 mi
11:58 AM89 °FSunny.7 mph40%29.98 "Hg10 mi
10:58 AM86 °FSunny.8 mph45%29.97 "Hg10 mi
9:58 AM82 °FSunny.9 mph53%29.97 "Hg10 mi
8:58 AM77 °FSunny.7 mph64%29.97 "Hg10 mi
7:58 AM72 °FClear.2 mph68%29.98 "Hg9 mi
6:58 AM70 °FClear.1 mph72%29.95 "Hg10 mi
5:58 AM72 °FClear.3 mph66%29.94 "Hg10 mi
4:58 AM72 °FClear.5 mph68%29.97 "Hg10 mi
3:58 AM75 °FClear.2 mph62%29.98 "Hg10 mi
2:58 AM74 °FClear.2 mph65%29.98 "Hg10 mi
1:58 AM75 °FClear.5 mph62%30.00 "Hg10 mi
12:58 AM77 °FClear.5 mph59%30.01 "Hg10 mi
11:58 PM
Thu, Aug 27
77 °FClear.6 mph58%30.01 "Hg10 mi
10:58 PM80 °FClear.9 mph51%30.00 "Hg10 mi
9:58 PM83 °FClear.10 mph44%30.00 "Hg10 mi
8:58 PM85 °FClear.7 mph41%29.97 "Hg10 mi
7:58 PM89 °FSunny.9 mph35%29.93 "Hg10 mi
6:58 PM93 °FSunny.6 mph30%29.93 "Hg10 mi
5:58 PM95 °FSunny.10 mph29%29.94 "Hg10 mi
4:58 PM95 °FSunny.8 mph31%29.98 "Hg10 mi
3:58 PM94 °FSunny.1 mph35%30.00 "Hg10 mi
2:58 PM93 °FSunny.6 mph38%30.02 "Hg10 mi
Weather by CustomWeather, © 2015

See weather overviewHow to use our weather pages